Time,TemperatureF,DewpointF,PressureIn,WindDirection,WindDirectionDegrees,WindSpeedMPH,WindSpeedGustMPH,Humidity,HourlyPrecipIn,Conditions,Clouds,dailyrainin,SoftwareType,DateUTC
2013-03-24 00:00:00,37.8,24.8,29.60,North,-999,-999.0,-999.0,59,-99.99,,,-99.99,meteohub,2013-03-24 04:00:00,
2013-03-24 00:02:00,37.6,25.0,29.60,North,-999,-999.0,-999.0,60,-99.99,,,-99.99,meteohub,2013-03-24 04:02:00,
2013-03-24 00:07:00,37.4,25.2,29.60,North,-999,-999.0,-999.0,61,-99.99,,,-99.99,meteohub,2013-03-24 04:07:00,
2013-03-24 00:12:00,37.4,25.2,29.60,North,-999,-999.0,-999.0,61,-99.99,,,-99.99,meteohub,2013-03-24 04:12:00,
2013-03-24 00:17:00,37.0,25.3,29.60,North,-999,-999.0,-999.0,62,-99.99,,,-99.99,meteohub,2013-03-24 04:17:00,
2013-03-24 00:23:00,36.9,25.5,29.60,North,-999,-999.0,-999.0,63,-99.99,,,-99.99,meteohub,2013-03-24 04:23:00,
2013-03-24 00:28:00,36.9,25.2,29.60,North,-999,-999.0,-999.0,62,-99.99,,,-99.99,meteohub,2013-03-24 04:28:00,
2013-03-24 00:33:00,36.9,25.5,29.60,North,-999,-999.0,-999.0,63,-99.99,,,-99.99,meteohub,2013-03-24 04:33:00,
2013-03-24 00:38:00,36.7,25.3,29.60,North,-999,-999.0,-999.0,63,-99.99,,,-99.99,meteohub,2013-03-24 04:38:00,
2013-03-24 00:43:00,36.7,25.3,29.60,North,-999,-999.0,-999.0,63,-99.99,,,-99.99,meteohub,2013-03-24 04:43:00,
2013-03-24 00:48:00,36.3,25.3,29.60,North,-999,-999.0,-999.0,64,-99.99,,,-99.99,meteohub,2013-03-24 04:48:00,
2013-03-24 00:53:00,36.3,25.3,29.57,North,-999,-999.0,-999.0,64,-99.99,,,-99.99,meteohub,2013-03-24 04:53:00,
2013-03-24 00:59:00,36.1,25.2,29.57,North,-999,-999.0,-999.0,64,-99.99,,,-99.99,meteohub,2013-03-24 04:59:00,
2013-03-24 01:04:00,36.0,25.7,29.57,North,-999,-999.0,-999.0,66,-99.99,,,-99.99,meteohub,2013-03-24 05:04:00,
2013-03-24 01:09:00,35.8,25.2,29.57,North,-999,-999.0,-999.0,65,-99.99,,,-99.99,meteohub,2013-03-24 05:09:00,
2013-03-24 01:14:00,35.8,25.2,29.57,North,-999,-999.0,-999.0,65,-99.99,,,-99.99,meteohub,2013-03-24 05:14:00,
2013-03-24 01:19:00,35.8,25.2,29.57,North,-999,-999.0,-999.0,65,-99.99,,,-99.99,meteohub,2013-03-24 05:19:00,
2013-03-24 01:24:00,35.8,25.2,29.57,North,-999,-999.0,-999.0,65,-99.99,,,-99.99,meteohub,2013-03-24 05:24:00,
2013-03-24 01:29:00,35.6,25.3,29.57,North,-999,-999.0,-999.0,66,-99.99,,,-99.99,meteohub,2013-03-24 05:29:00,
2013-03-24 01:35:00,35.4,25.5,29.57,North,-999,-999.0,-999.0,67,-99.99,,,-99.99,meteohub,2013-03-24 05:35:00,
2013-03-24 01:40:00,35.2,26.1,29.57,North,-999,-999.0,-999.0,69,-99.99,,,-99.99,meteohub,2013-03-24 05:40:00,
2013-03-24 01:45:00,35.4,26.2,29.57,North,-999,-999.0,-999.0,69,-99.99,,,-99.99,meteohub,2013-03-24 05:45:00,
2013-03-24 01:50:00,35.4,26.2,29.57,North,-999,-999.0,-999.0,69,-99.99,,,-99.99,meteohub,2013-03-24 05:50:00,
2013-03-24 01:55:00,35.4,25.9,29.57,North,-999,-999.0,-999.0,68,-99.99,,,-99.99,meteohub,2013-03-24 05:55:00,
2013-03-24 02:00:00,35.6,26.1,29.57,North,-999,-999.0,-999.0,68,-99.99,,,-99.99,meteohub,2013-03-24 06:00:00,
2013-03-24 02:05:00,35.6,26.1,29.54,North,-999,-999.0,-999.0,68,-99.99,,,-99.99,meteohub,2013-03-24 06:05:00,
2013-03-24 02:11:00,35.8,26.6,29.54,North,-999,-999.0,-999.0,69,-99.99,,,-99.99,meteohub,2013-03-24 06:11:00,
2013-03-24 02:16:00,35.8,26.6,29.54,North,-999,-999.0,-999.0,69,-99.99,,,-99.99,meteohub,2013-03-24 06:16:00,
2013-03-24 02:21:00,36.0,26.4,29.57,North,-999,-999.0,-999.0,68,-99.99,,,-99.99,meteohub,2013-03-24 06:21:00,
2013-03-24 02:27:00,36.1,27.3,29.57,North,-999,-999.0,-999.0,70,-99.99,,,-99.99,meteohub,2013-03-24 06:27:00,
2013-03-24 02:32:00,36.1,27.3,29.57,North,-999,-999.0,-999.0,70,-99.99,,,-99.99,meteohub,2013-03-24 06:32:00,
2013-03-24 02:37:00,36.3,27.1,29.54,North,-999,-999.0,-999.0,69,-99.99,,,-99.99,meteohub,2013-03-24 06:37:00,
2013-03-24 02:42:00,36.3,27.9,29.54,North,-999,-999.0,-999.0,71,-99.99,,,-99.99,meteohub,2013-03-24 06:42:00,
2013-03-24 02:47:00,36.5,28.0,29.54,North,-999,-999.0,-999.0,71,-99.99,,,-99.99,meteohub,2013-03-24 06:47:00,
2013-03-24 02:52:00,36.7,28.2,29.57,North,-999,-999.0,-999.0,71,-99.99,,,-99.99,meteohub,2013-03-24 06:52:00,
2013-03-24 02:57:00,36.9,28.4,29.57,North,-999,-999.0,-999.0,71,-99.99,,,-99.99,meteohub,2013-03-24 06:57:00,
2013-03-24 03:02:00,37.0,29.5,29.57,North,-999,-999.0,-999.0,74,-99.99,,,-99.99,meteohub,2013-03-24 07:02:00,
2013-03-24 03:07:00,37.0,29.5,29.57,North,-999,-999.0,-999.0,74,-99.99,,,-99.99,meteohub,2013-03-24 07:07:00,
2013-03-24 03:12:00,37.2,29.3,29.57,North,-999,-999.0,-999.0,73,-99.99,,,-99.99,meteohub,2013-03-24 07:12:00,
2013-03-24 03:17:00,37.4,29.3,29.57,North,-999,-999.0,-999.0,72,-99.99,,,-99.99,meteohub,2013-03-24 07:17:00,
2013-03-24 03:22:00,37.6,29.1,29.57,North,-999,-999.0,-999.0,71,-99.99,,,-99.99,meteohub,2013-03-24 07:22:00,
2013-03-24 03:27:00,37.6,29.1,29.57,North,-999,-999.0,-999.0,71,-99.99,,,-99.99,meteohub,2013-03-24 07:27:00,
2013-03-24 03:32:00,37.8,29.3,29.57,North,-999,-999.0,-999.0,71,-99.99,,,-99.99,meteohub,2013-03-24 07:32:00,
2013-03-24 03:38:00,37.9,29.5,29.57,North,-999,-999.0,-999.0,71,-99.99,,,-99.99,meteohub,2013-03-24 07:38:00,
2013-03-24 03:43:00,37.9,29.1,29.57,North,-999,-999.0,-999.0,70,-99.99,,,-99.99,meteohub,2013-03-24 07:43:00,
2013-03-24 03:48:00,38.1,29.3,29.57,North,-999,-999.0,-999.0,70,-99.99,,,-99.99,meteohub,2013-03-24 07:48:00,
2013-03-24 03:53:00,38.1,29.3,29.57,North,-999,-999.0,-999.0,70,-99.99,,,-99.99,meteohub,2013-03-24 07:53:00,
2013-03-24 03:58:00,38.3,29.5,29.57,North,-999,-999.0,-999.0,70,-99.99,,,-99.99,meteohub,2013-03-24 07:58:00,
2013-03-24 04:03:00,38.5,29.7,29.57,North,-999,-999.0,-999.0,70,-99.99,,,-99.99,meteohub,2013-03-24 08:03:00,
2013-03-24 04:08:00,38.5,29.7,29.57,North,-999,-999.0,-999.0,70,-99.99,,,-99.99,meteohub,2013-03-24 08:08:00,
2013-03-24 04:14:00,38.7,29.7,29.57,North,-999,-999.0,-999.0,70,-99.99,,,-99.99,meteohub,2013-03-24 08:14:00,
2013-03-24 04:19:00,38.7,29.7,29.57,North,-999,-999.0,-999.0,70,-99.99,,,-99.99,meteohub,2013-03-24 08:19:00,
2013-03-24 04:24:00,38.7,29.7,29.57,North,-999,-999.0,-999.0,70,-99.99,,,-99.99,meteohub,2013-03-24 08:24:00,
2013-03-24 04:29:00,38.8,29.8,29.57,North,-999,-999.0,-999.0,70,-99.99,,,-99.99,meteohub,2013-03-24 08:29:00,
2013-03-24 04:34:00,38.8,29.8,29.54,North,-999,-999.0,-999.0,70,-99.99,,,-99.99,meteohub,2013-03-24 08:34:00,
2013-03-24 04:40:00,38.8,29.8,29.54,North,-999,-999.0,-999.0,70,-99.99,,,-99.99,meteohub,2013-03-24 08:40:00,
2013-03-24 04:45:00,39.0,30.0,29.54,North,-999,-999.0,-999.0,70,-99.99,,,-99.99,meteohub,2013-03-24 08:45:00,
2013-03-24 04:50:00,39.0,30.4,29.54,North,-999,-999.0,-999.0,71,-99.99,,,-99.99,meteohub,2013-03-24 08:50:00,
2013-03-24 04:55:00,39.2,30.2,29.54,North,-999,-999.0,-999.0,70,-99.99,,,-99.99,meteohub,2013-03-24 08:55:00,
2013-03-24 05:01:00,39.2,30.2,29.54,North,-999,-999.0,-999.0,70,-99.99,,,-99.99,meteohub,2013-03-24 09:01:00,
2013-03-24 05:06:00,39.2,30.2,29.54,North,-999,-999.0,-999.0,70,-99.99,,,-99.99,meteohub,2013-03-24 09:06:00,
2013-03-24 05:11:00,39.2,29.8,29.54,North,-999,-999.0,-999.0,69,-99.99,,,-99.99,meteohub,2013-03-24 09:11:00,
2013-03-24 05:17:00,39.4,30.4,29.54,North,-999,-999.0,-999.0,70,-99.99,,,-99.99,meteohub,2013-03-24 09:17:00,
2013-03-24 05:22:00,39.4,30.4,29.54,North,-999,-999.0,-999.0,70,-99.99,,,-99.99,meteohub,2013-03-24 09:22:00,
2013-03-24 05:27:00,39.4,30.4,29.54,North,-999,-999.0,-999.0,70,-99.99,,,-99.99,meteohub,2013-03-24 09:27:00,
2013-03-24 05:32:00,39.6,30.6,29.54,North,-999,-999.0,-999.0,70,-99.99,,,-99.99,meteohub,2013-03-24 09:32:00,
2013-03-24 05:37:00,39.6,30.2,29.54,North,-999,-999.0,-999.0,69,-99.99,,,-99.99,meteohub,2013-03-24 09:37:00,
2013-03-24 05:43:00,39.7,30.7,29.54,North,-999,-999.0,-999.0,70,-99.99,,,-99.99,meteohub,2013-03-24 09:43:00,
2013-03-24 05:48:00,39.7,30.7,29.54,North,-999,-999.0,-999.0,70,-99.99,,,-99.99,meteohub,2013-03-24 09:48:00,
2013-03-24 05:53:00,39.7,30.4,29.51,North,-999,-999.0,-999.0,69,-99.99,,,-99.99,meteohub,2013-03-24 09:53:00,
2013-03-24 05:58:00,39.7,30.7,29.51,North,-999,-999.0,-999.0,70,-99.99,,,-99.99,meteohub,2013-03-24 09:58:00,
2013-03-24 06:03:00,39.9,30.9,29.51,North,-999,-999.0,-999.0,70,-99.99,,,-99.99,meteohub,2013-03-24 10:03:00,
2013-03-24 06:08:00,40.1,31.1,29.51,North,-999,-999.0,-999.0,70,-99.99,,,-99.99,meteohub,2013-03-24 10:08:00,
2013-03-24 06:14:00,40.1,31.1,29.51,North,-999,-999.0,-999.0,70,-99.99,,,-99.99,meteohub,2013-03-24 10:14:00,
2013-03-24 06:19:00,40.3,31.3,29.48,North,-999,-999.0,-999.0,70,-99.99,,,-99.99,meteohub,2013-03-24 10:19:00,
2013-03-24 06:24:00,40.5,31.5,29.48,North,-999,-999.0,-999.0,70,-99.99,,,-99.99,meteohub,2013-03-24 10:24:00,
2013-03-24 06:29:00,40.5,31.5,29.48,North,-999,-999.0,-999.0,70,-99.99,,,-99.99,meteohub,2013-03-24 10:29:00,
2013-03-24 06:34:00,40.5,31.5,29.51,North,-999,-999.0,-999.0,70,-99.99,,,-99.99,meteohub,2013-03-24 10:34:00,
2013-03-24 06:40:00,40.6,31.3,29.51,North,-999,-999.0,-999.0,69,-99.99,,,-99.99,meteohub,2013-03-24 10:40:00,
2013-03-24 06:45:00,40.6,31.3,29.51,North,-999,-999.0,-999.0,69,-99.99,,,-99.99,meteohub,2013-03-24 10:45:00,
2013-03-24 06:50:00,40.8,31.5,29.51,North,-999,-999.0,-999.0,69,-99.99,,,-99.99,meteohub,2013-03-24 10:50:00,
2013-03-24 06:55:00,41.0,31.3,29.51,North,-999,-999.0,-999.0,68,-99.99,,,-99.99,meteohub,2013-03-24 10:55:00,
2013-03-24 07:00:00,41.0,31.3,29.51,North,-999,-999.0,-999.0,68,-99.99,,,-99.99,meteohub,2013-03-24 11:00:00,
2013-03-24 07:05:00,41.2,31.8,29.51,North,-999,-999.0,-999.0,69,-99.99,,,-99.99,meteohub,2013-03-24 11:05:00,
2013-03-24 07:11:00,41.2,31.5,29.51,North,-999,-999.0,-999.0,68,-99.99,,,-99.99,meteohub,2013-03-24 11:11:00,
2013-03-24 07:16:00,41.2,31.5,29.51,North,-999,-999.0,-999.0,68,-99.99,,,-99.99,meteohub,2013-03-24 11:16:00,
2013-03-24 07:21:00,41.2,31.5,29.54,North,-999,-999.0,-999.0,68,-99.99,,,-99.99,meteohub,2013-03-24 11:21:00,
2013-03-24 07:26:00,41.0,31.3,29.54,North,-999,-999.0,-999.0,68,-99.99,,,-99.99,meteohub,2013-03-24 11:26:00,
2013-03-24 07:31:00,41.0,32.0,29.54,North,-999,-999.0,-999.0,70,-99.99,,,-99.99,meteohub,2013-03-24 11:31:00,
2013-03-24 07:37:00,41.0,31.6,29.51,North,-999,-999.0,-999.0,69,-99.99,,,-99.99,meteohub,2013-03-24 11:37:00,
2013-03-24 07:42:00,41.0,31.6,29.51,North,-999,-999.0,-999.0,69,-99.99,,,-99.99,meteohub,2013-03-24 11:42:00,
2013-03-24 07:47:00,41.0,31.6,29.51,North,-999,-999.0,-999.0,69,-99.99,,,-99.99,meteohub,2013-03-24 11:47:00,
2013-03-24 07:52:00,41.0,32.0,29.51,North,-999,-999.0,-999.0,70,-99.99,,,-99.99,meteohub,2013-03-24 11:52:00,
2013-03-24 07:57:00,40.8,32.2,29.51,North,-999,-999.0,-999.0,71,-99.99,,,-99.99,meteohub,2013-03-24 11:57:00,
2013-03-24 08:02:00,40.8,32.2,29.51,North,-999,-999.0,-999.0,71,-99.99,,,-99.99,meteohub,2013-03-24 12:02:00,
2013-03-24 08:07:00,40.8,32.2,29.51,North,-999,-999.0,-999.0,71,-99.99,,,-99.99,meteohub,2013-03-24 12:07:00,
2013-03-24 08:13:00,40.6,32.4,29.51,North,-999,-999.0,-999.0,72,-99.99,,,-99.99,meteohub,2013-03-24 12:13:00,
2013-03-24 08:18:00,40.6,32.4,29.51,North,-999,-999.0,-999.0,72,-99.99,,,-99.99,meteohub,2013-03-24 12:18:00,
2013-03-24 08:23:00,40.5,32.9,29.51,North,-999,-999.0,-999.0,74,-99.99,,,-99.99,meteohub,2013-03-24 12:23:00,
2013-03-24 08:28:00,40.3,32.7,29.51,North,-999,-999.0,-999.0,74,-99.99,,,-99.99,meteohub,2013-03-24 12:28:00,
2013-03-24 08:33:00,40.3,32.7,29.51,North,-999,-999.0,-999.0,74,-99.99,,,-99.99,meteohub,2013-03-24 12:33:00,
2013-03-24 08:38:00,40.3,33.1,29.51,North,-999,-999.0,-999.0,75,-99.99,,,-99.99,meteohub,2013-03-24 12:38:00,
2013-03-24 08:44:00,40.3,33.1,29.51,North,-999,-999.0,-999.0,75,-99.99,,,-99.99,meteohub,2013-03-24 12:44:00,
2013-03-24 08:49:00,40.3,33.6,29.48,North,-999,-999.0,-999.0,77,-99.99,,,-99.99,meteohub,2013-03-24 12:49:00,
2013-03-24 08:54:00,40.3,33.6,29.48,North,-999,-999.0,-999.0,77,-99.99,,,-99.99,meteohub,2013-03-24 12:54:00,
2013-03-24 08:59:00,40.3,33.6,29.48,North,-999,-999.0,-999.0,77,-99.99,,,-99.99,meteohub,2013-03-24 12:59:00,
2013-03-24 09:04:00,40.3,34.0,29.48,North,-999,-999.0,-999.0,78,-99.99,,,-99.99,meteohub,2013-03-24 13:04:00,
2013-03-24 09:09:00,40.1,33.4,29.48,North,-999,-999.0,-999.0,77,-99.99,,,-99.99,meteohub,2013-03-24 13:09:00,
2013-03-24 09:15:00,40.1,33.4,29.48,North,-999,-999.0,-999.0,77,-99.99,,,-99.99,meteohub,2013-03-24 13:15:00,
2013-03-24 09:20:00,40.1,33.8,29.45,North,-999,-999.0,-999.0,78,-99.99,,,-99.99,meteohub,2013-03-24 13:20:00,
2013-03-24 09:25:00,40.3,34.0,29.45,North,-999,-999.0,-999.0,78,-99.99,,,-99.99,meteohub,2013-03-24 13:25:00,
2013-03-24 09:30:00,40.3,34.0,29.45,North,-999,-999.0,-999.0,78,-99.99,,,-99.99,meteohub,2013-03-24 13:30:00,
2013-03-24 09:35:00,40.1,33.8,29.45,North,-999,-999.0,-999.0,78,-99.99,,,-99.99,meteohub,2013-03-24 13:35:00,
2013-03-24 09:40:00,40.3,34.0,29.45,North,-999,-999.0,-999.0,78,-99.99,,,-99.99,meteohub,2013-03-24 13:40:00,
2013-03-24 09:46:00,40.3,34.0,29.45,North,-999,-999.0,-999.0,78,-99.99,,,-99.99,meteohub,2013-03-24 13:46:00,
2013-03-24 09:51:00,40.5,34.2,29.42,North,-999,-999.0,-999.0,78,-99.99,,,-99.99,meteohub,2013-03-24 13:51:00,
2013-03-24 09:56:00,40.5,33.8,29.42,North,-999,-999.0,-999.0,77,-99.99,,,-99.99,meteohub,2013-03-24 13:56:00,
2013-03-24 10:02:00,40.5,33.8,29.42,North,-999,-999.0,-999.0,77,-99.99,,,-99.99,meteohub,2013-03-24 14:02:00,
2013-03-24 10:07:00,40.6,34.0,29.45,North,-999,-999.0,-999.0,77,-99.99,,,-99.99,meteohub,2013-03-24 14:07:00,
2013-03-24 10:12:00,40.6,34.3,29.45,North,-999,-999.0,-999.0,78,-99.99,,,-99.99,meteohub,2013-03-24 14:12:00,
2013-03-24 10:17:00,40.6,34.7,29.45,North,-999,-999.0,-999.0,79,-99.99,,,-99.99,meteohub,2013-03-24 14:17:00,
2013-03-24 10:22:00,40.5,34.9,29.45,North,-999,-999.0,-999.0,80,-99.99,,,-99.99,meteohub,2013-03-24 14:22:00,
2013-03-24 10:28:00,40.3,34.9,29.45,North,-999,-999.0,-999.0,81,-99.99,,,-99.99,meteohub,2013-03-24 14:28:00,
2013-03-24 10:33:00,40.3,35.2,29.45,North,-999,-999.0,-999.0,82,-99.99,,,-99.99,meteohub,2013-03-24 14:33:00,
2013-03-24 10:38:00,40.3,34.9,29.51,North,-999,-999.0,-999.0,81,-99.99,,,-99.99,meteohub,2013-03-24 14:38:00,
2013-03-24 10:43:00,40.3,35.2,29.51,North,-999,-999.0,-999.0,82,-99.99,,,-99.99,meteohub,2013-03-24 14:43:00,
2013-03-24 10:48:00,40.5,35.8,29.51,North,-999,-999.0,-999.0,83,-99.99,,,-99.99,meteohub,2013-03-24 14:48:00,
2013-03-24 10:54:00,40.5,35.8,29.45,North,-999,-999.0,-999.0,83,-99.99,,,-99.99,meteohub,2013-03-24 14:54:00,
2013-03-24 10:59:00,40.5,36.0,29.45,North,-999,-999.0,-999.0,84,-99.99,,,-99.99,meteohub,2013-03-24 14:59:00,
2013-03-24 11:04:00,40.5,36.0,29.45,North,-999,-999.0,-999.0,84,-99.99,,,-99.99,meteohub,2013-03-24 15:04:00,
2013-03-24 11:09:00,40.5,36.3,29.45,North,-999,-999.0,-999.0,85,-99.99,,,-99.99,meteohub,2013-03-24 15:09:00,
2013-03-24 11:14:00,40.3,35.8,29.45,North,-999,-999.0,-999.0,84,-99.99,,,-99.99,meteohub,2013-03-24 15:14:00,
2013-03-24 11:19:00,40.3,35.8,29.42,North,-999,-999.0,-999.0,84,-99.99,,,-99.99,meteohub,2013-03-24 15:19:00,
2013-03-24 11:24:00,40.3,35.8,29.42,North,-999,-999.0,-999.0,84,-99.99,,,-99.99,meteohub,2013-03-24 15:24:00,
2013-03-24 11:30:00,40.1,35.6,29.42,North,-999,-999.0,-999.0,84,-99.99,,,-99.99,meteohub,2013-03-24 15:30:00,
2013-03-24 11:35:00,40.1,35.6,29.39,North,-999,-999.0,-999.0,84,-99.99,,,-99.99,meteohub,2013-03-24 15:35:00,
2013-03-24 11:40:00,40.1,35.4,29.39,North,-999,-999.0,-999.0,83,-99.99,,,-99.99,meteohub,2013-03-24 15:40:00,
2013-03-24 11:45:00,40.1,35.4,29.39,North,-999,-999.0,-999.0,83,-99.99,,,-99.99,meteohub,2013-03-24 15:45:00,
2013-03-24 11:50:00,40.3,35.6,29.39,North,-999,-999.0,-999.0,83,-99.99,,,-99.99,meteohub,2013-03-24 15:50:00,
2013-03-24 11:55:00,40.1,35.4,29.39,North,-999,-999.0,-999.0,83,-99.99,,,-99.99,meteohub,2013-03-24 15:55:00,
2013-03-24 12:01:00,40.1,35.4,29.39,North,-999,-999.0,-999.0,83,-99.99,,,-99.99,meteohub,2013-03-24 16:01:00,
2013-03-24 12:06:00,39.9,35.2,29.39,North,-999,-999.0,-999.0,83,-99.99,,,-99.99,meteohub,2013-03-24 16:06:00,
2013-03-24 12:11:00,40.1,35.4,29.39,North,-999,-999.0,-999.0,83,-99.99,,,-99.99,meteohub,2013-03-24 16:11:00,
2013-03-24 12:16:00,40.1,35.6,29.39,North,-999,-999.0,-999.0,84,-99.99,,,-99.99,meteohub,2013-03-24 16:16:00,
2013-03-24 12:22:00,40.3,35.8,29.36,North,-999,-999.0,-999.0,84,-99.99,,,-99.99,meteohub,2013-03-24 16:22:00,
2013-03-24 12:27:00,40.3,36.1,29.36,North,-999,-999.0,-999.0,85,-99.99,,,-99.99,meteohub,2013-03-24 16:27:00,
2013-03-24 12:32:00,40.1,36.3,29.36,North,-999,-999.0,-999.0,86,-99.99,,,-99.99,meteohub,2013-03-24 16:32:00,
2013-03-24 12:37:00,40.1,36.3,29.36,North,-999,-999.0,-999.0,86,-99.99,,,-99.99,meteohub,2013-03-24 16:37:00,
2013-03-24 12:42:00,40.1,36.5,29.36,North,-999,-999.0,-999.0,87,-99.99,,,-99.99,meteohub,2013-03-24 16:42:00,
2013-03-24 12:48:00,39.9,36.3,29.36,North,-999,-999.0,-999.0,87,-99.99,,,-99.99,meteohub,2013-03-24 16:48:00,
2013-03-24 12:53:00,39.9,36.7,29.34,North,-999,-999.0,-999.0,88,-99.99,,,-99.99,meteohub,2013-03-24 16:53:00,
2013-03-24 12:58:00,39.9,36.7,29.34,North,-999,-999.0,-999.0,88,-99.99,,,-99.99,meteohub,2013-03-24 16:58:00,
2013-03-24 13:03:00,39.7,36.5,29.34,North,-999,-999.0,-999.0,88,-99.99,,,-99.99,meteohub,2013-03-24 17:03:00,
2013-03-24 13:08:00,39.7,36.5,29.34,North,-999,-999.0,-999.0,88,-99.99,,,-99.99,meteohub,2013-03-24 17:08:00,
2013-03-24 13:13:00,39.7,36.9,29.34,North,-999,-999.0,-999.0,89,-99.99,,,-99.99,meteohub,2013-03-24 17:13:00,
2013-03-24 13:19:00,39.7,36.9,29.34,North,-999,-999.0,-999.0,89,-99.99,,,-99.99,meteohub,2013-03-24 17:19:00,
2013-03-24 13:24:00,39.7,37.0,29.34,North,-999,-999.0,-999.0,90,-99.99,,,-99.99,meteohub,2013-03-24 17:24:00,
2013-03-24 13:29:00,39.7,37.0,29.34,North,-999,-999.0,-999.0,90,-99.99,,,-99.99,meteohub,2013-03-24 17:29:00,
2013-03-24 13:34:00,39.7,37.0,29.31,North,-999,-999.0,-999.0,90,-99.99,,,-99.99,meteohub,2013-03-24 17:34:00,
2013-03-24 13:39:00,39.7,37.0,29.31,North,-999,-999.0,-999.0,90,-99.99,,,-99.99,meteohub,2013-03-24 17:39:00,
2013-03-24 13:44:00,39.7,37.0,29.31,North,-999,-999.0,-999.0,90,-99.99,,,-99.99,meteohub,2013-03-24 17:44:00,
2013-03-24 13:49:00,39.7,37.4,29.31,North,-999,-999.0,-999.0,91,-99.99,,,-99.99,meteohub,2013-03-24 17:49:00,
2013-03-24 13:55:00,39.6,37.4,29.31,North,-999,-999.0,-999.0,92,-99.99,,,-99.99,meteohub,2013-03-24 17:55:00,
2013-03-24 14:00:00,39.6,37.4,29.31,North,-999,-999.0,-999.0,92,-99.99,,,-99.99,meteohub,2013-03-24 18:00:00,
2013-03-24 14:05:00,39.7,37.6,29.31,North,-999,-999.0,-999.0,92,-99.99,,,-99.99,meteohub,2013-03-24 18:05:00,
2013-03-24 14:10:00,39.7,37.4,29.31,North,-999,-999.0,-999.0,91,-99.99,,,-99.99,meteohub,2013-03-24 18:10:00,
2013-03-24 14:15:00,39.7,37.6,29.31,North,-999,-999.0,-999.0,92,-99.99,,,-99.99,meteohub,2013-03-24 18:15:00,
2013-03-24 14:20:00,39.9,37.8,29.28,North,-999,-999.0,-999.0,92,-99.99,,,-99.99,meteohub,2013-03-24 18:20:00,
2013-03-24 14:25:00,39.7,37.6,29.28,North,-999,-999.0,-999.0,92,-99.99,,,-99.99,meteohub,2013-03-24 18:25:00,
2013-03-24 14:31:00,39.7,37.6,29.28,North,-999,-999.0,-999.0,92,-99.99,,,-99.99,meteohub,2013-03-24 18:31:00,
2013-03-24 14:36:00,39.7,37.6,29.28,North,-999,-999.0,-999.0,92,-99.99,,,-99.99,meteohub,2013-03-24 18:36:00,
2013-03-24 14:41:00,39.7,37.6,29.28,North,-999,-999.0,-999.0,92,-99.99,,,-99.99,meteohub,2013-03-24 18:41:00,
2013-03-24 14:47:00,39.7,37.6,29.28,North,-999,-999.0,-999.0,92,-99.99,,,-99.99,meteohub,2013-03-24 18:47:00,
2013-03-24 14:52:00,39.7,37.6,29.25,North,-999,-999.0,-999.0,92,-99.99,,,-99.99,meteohub,2013-03-24 18:52:00,
2013-03-24 14:57:00,39.7,37.4,29.25,North,-999,-999.0,-999.0,91,-99.99,,,-99.99,meteohub,2013-03-24 18:57:00,
2013-03-24 15:03:00,39.7,37.4,29.25,North,-999,-999.0,-999.0,91,-99.99,,,-99.99,meteohub,2013-03-24 19:03:00,
2013-03-24 15:08:00,39.7,37.4,29.28,North,-999,-999.0,-999.0,91,-99.99,,,-99.99,meteohub,2013-03-24 19:08:00,
2013-03-24 15:13:00,39.7,37.4,29.28,North,-999,-999.0,-999.0,91,-99.99,,,-99.99,meteohub,2013-03-24 19:13:00,
2013-03-24 15:18:00,39.9,37.6,29.28,North,-999,-999.0,-999.0,91,-99.99,,,-99.99,meteohub,2013-03-24 19:18:00,
2013-03-24 15:23:00,39.9,37.2,29.31,North,-999,-999.0,-999.0,90,-99.99,,,-99.99,meteohub,2013-03-24 19:23:00,
2013-03-24 15:28:00,39.7,37.0,29.31,North,-999,-999.0,-999.0,90,-99.99,,,-99.99,meteohub,2013-03-24 19:28:00,
2013-03-24 15:33:00,39.7,37.4,29.31,North,-999,-999.0,-999.0,91,-99.99,,,-99.99,meteohub,2013-03-24 19:33:00,
2013-03-24 15:38:00,39.7,37.4,29.31,North,-999,-999.0,-999.0,91,-99.99,,,-99.99,meteohub,2013-03-24 19:38:00,
2013-03-24 15:43:00,39.7,37.4,29.31,North,-999,-999.0,-999.0,91,-99.99,,,-99.99,meteohub,2013-03-24 19:43:00,
2013-03-24 15:49:00,39.7,37.4,29.28,North,-999,-999.0,-999.0,91,-99.99,,,-99.99,meteohub,2013-03-24 19:49:00,
2013-03-24 15:54:00,39.7,37.4,29.28,North,-999,-999.0,-999.0,91,-99.99,,,-99.99,meteohub,2013-03-24 19:54:00,
2013-03-24 15:59:00,39.7,37.4,29.28,North,-999,-999.0,-999.0,91,-99.99,,,-99.99,meteohub,2013-03-24 19:59:00,
2013-03-24 16:04:00,39.6,37.2,29.28,North,-999,-999.0,-999.0,91,-99.99,,,-99.99,meteohub,2013-03-24 20:04:00,
2013-03-24 16:10:00,39.7,37.4,29.28,North,-999,-999.0,-999.0,91,-99.99,,,-99.99,meteohub,2013-03-24 20:10:00,
2013-03-24 16:15:00,39.7,37.4,29.28,North,-999,-999.0,-999.0,91,-99.99,,,-99.99,meteohub,2013-03-24 20:15:00,
2013-03-24 16:20:00,39.7,37.4,29.28,North,-999,-999.0,-999.0,91,-99.99,,,-99.99,meteohub,2013-03-24 20:20:00,
2013-03-24 16:25:00,39.7,37.4,29.28,North,-999,-999.0,-999.0,91,-99.99,,,-99.99,meteohub,2013-03-24 20:25:00,
2013-03-24 16:30:00,39.6,37.2,29.28,North,-999,-999.0,-999.0,91,-99.99,,,-99.99,meteohub,2013-03-24 20:30:00,
2013-03-24 16:36:00,39.4,37.0,29.28,North,-999,-999.0,-999.0,91,-99.99,,,-99.99,meteohub,2013-03-24 20:36:00,
2013-03-24 16:41:00,39.4,37.0,29.28,North,-999,-999.0,-999.0,91,-99.99,,,-99.99,meteohub,2013-03-24 20:41:00,
2013-03-24 16:46:00,39.4,37.0,29.28,North,-999,-999.0,-999.0,91,-99.99,,,-99.99,meteohub,2013-03-24 20:46:00,
2013-03-24 16:51:00,39.2,36.9,29.31,North,-999,-999.0,-999.0,91,-99.99,,,-99.99,meteohub,2013-03-24 20:51:00,
2013-03-24 16:57:00,39.4,37.0,29.31,North,-999,-999.0,-999.0,91,-99.99,,,-99.99,meteohub,2013-03-24 20:57:00,
2013-03-24 17:02:00,39.4,37.0,29.31,North,-999,-999.0,-999.0,91,-99.99,,,-99.99,meteohub,2013-03-24 21:02:00,
2013-03-24 17:07:00,39.2,37.0,29.31,North,-999,-999.0,-999.0,92,-99.99,,,-99.99,meteohub,2013-03-24 21:07:00,
2013-03-24 17:12:00,39.2,37.0,29.31,North,-999,-999.0,-999.0,92,-99.99,,,-99.99,meteohub,2013-03-24 21:12:00,
2013-03-24 17:17:00,39.0,36.9,29.31,North,-999,-999.0,-999.0,92,-99.99,,,-99.99,meteohub,2013-03-24 21:17:00,
2013-03-24 17:22:00,39.2,37.0,29.31,North,-999,-999.0,-999.0,92,-99.99,,,-99.99,meteohub,2013-03-24 21:22:00,
2013-03-24 17:27:00,39.0,37.2,29.31,North,-999,-999.0,-999.0,93,-99.99,,,-99.99,meteohub,2013-03-24 21:27:00,
2013-03-24 17:32:00,39.0,37.2,29.31,North,-999,-999.0,-999.0,93,-99.99,,,-99.99,meteohub,2013-03-24 21:32:00,
2013-03-24 17:37:00,39.0,37.2,29.31,North,-999,-999.0,-999.0,93,-99.99,,,-99.99,meteohub,2013-03-24 21:37:00,
2013-03-24 17:42:00,39.0,37.2,29.31,North,-999,-999.0,-999.0,93,-99.99,,,-99.99,meteohub,2013-03-24 21:42:00,
2013-03-24 17:47:00,38.8,37.0,29.31,North,-999,-999.0,-999.0,93,-99.99,,,-99.99,meteohub,2013-03-24 21:47:00,
2013-03-24 17:52:00,38.8,37.0,29.31,North,-999,-999.0,-999.0,93,-99.99,,,-99.99,meteohub,2013-03-24 21:52:00,
2013-03-24 17:57:00,38.8,37.0,29.31,North,-999,-999.0,-999.0,93,-99.99,,,-99.99,meteohub,2013-03-24 21:57:00,
2013-03-24 18:02:00,39.0,37.2,29.31,North,-999,-999.0,-999.0,93,-99.99,,,-99.99,meteohub,2013-03-24 22:02:00,
2013-03-24 18:07:00,39.0,37.2,29.31,North,-999,-999.0,-999.0,93,-99.99,,,-99.99,meteohub,2013-03-24 22:07:00,
2013-03-24 18:13:00,39.0,37.2,29.31,North,-999,-999.0,-999.0,93,-99.99,,,-99.99,meteohub,2013-03-24 22:13:00,
2013-03-24 18:18:00,38.8,37.0,29.31,North,-999,-999.0,-999.0,93,-99.99,,,-99.99,meteohub,2013-03-24 22:18:00,
2013-03-24 18:23:00,38.8,36.7,29.28,North,-999,-999.0,-999.0,92,-99.99,,,-99.99,meteohub,2013-03-24 22:23:00,
2013-03-24 18:28:00,38.7,36.5,29.28,North,-999,-999.0,-999.0,92,-99.99,,,-99.99,meteohub,2013-03-24 22:28:00,
2013-03-24 18:33:00,38.7,36.3,29.28,North,-999,-999.0,-999.0,91,-99.99,,,-99.99,meteohub,2013-03-24 22:33:00,
2013-03-24 18:38:00,38.7,36.0,29.28,North,-999,-999.0,-999.0,90,-99.99,,,-99.99,meteohub,2013-03-24 22:38:00,
2013-03-24 18:44:00,38.7,36.0,29.28,North,-999,-999.0,-999.0,90,-99.99,,,-99.99,meteohub,2013-03-24 22:44:00,
2013-03-24 18:49:00,38.5,35.6,29.28,North,-999,-999.0,-999.0,89,-99.99,,,-99.99,meteohub,2013-03-24 22:49:00,
2013-03-24 18:54:00,38.5,35.6,29.28,North,-999,-999.0,-999.0,89,-99.99,,,-99.99,meteohub,2013-03-24 22:54:00,
2013-03-24 18:59:00,38.5,35.2,29.28,North,-999,-999.0,-999.0,88,-99.99,,,-99.99,meteohub,2013-03-24 22:59:00,
2013-03-24 19:05:00,38.5,35.2,29.28,North,-999,-999.0,-999.0,88,-99.99,,,-99.99,meteohub,2013-03-24 23:05:00,
2013-03-24 19:10:00,38.5,35.2,29.28,North,-999,-999.0,-999.0,88,-99.99,,,-99.99,meteohub,2013-03-24 23:10:00,
2013-03-24 19:15:00,38.3,35.1,29.28,North,-999,-999.0,-999.0,88,-99.99,,,-99.99,meteohub,2013-03-24 23:15:00,
2013-03-24 19:20:00,38.3,34.7,29.28,North,-999,-999.0,-999.0,87,-99.99,,,-99.99,meteohub,2013-03-24 23:20:00,
2013-03-24 19:25:00,38.3,34.7,29.28,North,-999,-999.0,-999.0,87,-99.99,,,-99.99,meteohub,2013-03-24 23:25:00,
2013-03-24 19:31:00,38.1,34.5,29.28,North,-999,-999.0,-999.0,87,-99.99,,,-99.99,meteohub,2013-03-24 23:31:00,
2013-03-24 19:36:00,38.1,34.5,29.28,North,-999,-999.0,-999.0,87,-99.99,,,-99.99,meteohub,2013-03-24 23:36:00,
2013-03-24 19:41:00,38.1,34.3,29.28,North,-999,-999.0,-999.0,86,-99.99,,,-99.99,meteohub,2013-03-24 23:41:00,
2013-03-24 19:46:00,38.1,34.3,29.28,North,-999,-999.0,-999.0,86,-99.99,,,-99.99,meteohub,2013-03-24 23:46:00,
2013-03-24 19:52:00,38.1,34.3,29.28,North,-999,-999.0,-999.0,86,-99.99,,,-99.99,meteohub,2013-03-24 23:52:00,
2013-03-24 19:57:00,37.9,34.2,29.28,North,-999,-999.0,-999.0,86,-99.99,,,-99.99,meteohub,2013-03-24 23:57:00,
2013-03-24 20:02:00,37.9,34.2,29.28,North,-999,-999.0,-999.0,86,-99.99,,,-99.99,meteohub,2013-03-25 00:02:00,
2013-03-24 20:07:00,37.9,33.8,29.28,North,-999,-999.0,-999.0,85,-99.99,,,-99.99,meteohub,2013-03-25 00:07:00,
2013-03-24 20:12:00,37.9,33.8,29.28,North,-999,-999.0,-999.0,85,-99.99,,,-99.99,meteohub,2013-03-25 00:12:00,
2013-03-24 20:17:00,37.9,33.8,29.28,North,-999,-999.0,-999.0,85,-99.99,,,-99.99,meteohub,2013-03-25 00:17:00,
2013-03-24 20:22:00,37.9,33.8,29.28,North,-999,-999.0,-999.0,85,-99.99,,,-99.99,meteohub,2013-03-25 00:22:00,
2013-03-24 20:27:00,37.9,33.8,29.28,North,-999,-999.0,-999.0,85,-99.99,,,-99.99,meteohub,2013-03-25 00:27:00,
2013-03-24 20:33:00,37.9,33.8,29.28,North,-999,-999.0,-999.0,85,-99.99,,,-99.99,meteohub,2013-03-25 00:33:00,
2013-03-24 20:38:00,37.9,34.2,29.31,North,-999,-999.0,-999.0,86,-99.99,,,-99.99,meteohub,2013-03-25 00:38:00,
2013-03-24 20:43:00,37.9,33.8,29.31,North,-999,-999.0,-999.0,85,-99.99,,,-99.99,meteohub,2013-03-25 00:43:00,
2013-03-24 20:48:00,37.9,33.8,29.31,North,-999,-999.0,-999.0,85,-99.99,,,-99.99,meteohub,2013-03-25 00:48:00,
2013-03-24 20:53:00,37.9,33.8,29.31,North,-999,-999.0,-999.0,85,-99.99,,,-99.99,meteohub,2013-03-25 00:53:00,
2013-03-24 20:58:00,37.8,33.6,29.31,North,-999,-999.0,-999.0,85,-99.99,,,-99.99,meteohub,2013-03-25 00:58:00,
2013-03-24 21:03:00,37.8,33.6,29.31,North,-999,-999.0,-999.0,85,-99.99,,,-99.99,meteohub,2013-03-25 01:03:00,
2013-03-24 21:08:00,37.8,33.6,29.31,North,-999,-999.0,-999.0,85,-99.99,,,-99.99,meteohub,2013-03-25 01:08:00,
2013-03-24 21:13:00,37.8,33.6,29.31,North,-999,-999.0,-999.0,85,-99.99,,,-99.99,meteohub,2013-03-25 01:13:00,
2013-03-24 21:18:00,37.8,33.4,29.31,North,-999,-999.0,-999.0,84,-99.99,,,-99.99,meteohub,2013-03-25 01:18:00,
2013-03-24 21:24:00,37.8,33.4,29.31,North,-999,-999.0,-999.0,84,-99.99,,,-99.99,meteohub,2013-03-25 01:24:00,
2013-03-24 21:29:00,37.6,33.3,29.31,North,-999,-999.0,-999.0,84,-99.99,,,-99.99,meteohub,2013-03-25 01:29:00,
2013-03-24 21:34:00,37.6,33.3,29.31,North,-999,-999.0,-999.0,84,-99.99,,,-99.99,meteohub,2013-03-25 01:34:00,
2013-03-24 21:39:00,37.6,33.3,29.31,North,-999,-999.0,-999.0,84,-99.99,,,-99.99,meteohub,2013-03-25 01:39:00,
2013-03-24 21:44:00,37.6,33.3,29.31,North,-999,-999.0,-999.0,84,-99.99,,,-99.99,meteohub,2013-03-25 01:44:00,
2013-03-24 21:49:00,37.6,33.3,29.31,North,-999,-999.0,-999.0,84,-99.99,,,-99.99,meteohub,2013-03-25 01:49:00,
2013-03-24 21:55:00,37.6,33.3,29.31,North,-999,-999.0,-999.0,84,-99.99,,,-99.99,meteohub,2013-03-25 01:55:00,
2013-03-24 22:00:00,37.6,33.3,29.31,North,-999,-999.0,-999.0,84,-99.99,,,-99.99,meteohub,2013-03-25 02:00:00,
2013-03-24 22:05:00,37.6,33.3,29.31,North,-999,-999.0,-999.0,84,-99.99,,,-99.99,meteohub,2013-03-25 02:05:00,
2013-03-24 22:10:00,37.6,33.3,29.31,North,-999,-999.0,-999.0,84,-99.99,,,-99.99,meteohub,2013-03-25 02:10:00,
2013-03-24 22:15:00,37.6,33.3,29.31,North,-999,-999.0,-999.0,84,-99.99,,,-99.99,meteohub,2013-03-25 02:15:00,
2013-03-24 22:20:00,37.6,33.3,29.34,North,-999,-999.0,-999.0,84,-99.99,,,-99.99,meteohub,2013-03-25 02:20:00,
2013-03-24 22:25:00,37.6,33.4,29.34,North,-999,-999.0,-999.0,85,-99.99,,,-99.99,meteohub,2013-03-25 02:25:00,
2013-03-24 22:32:00,37.6,33.4,29.34,North,-999,-999.0,-999.0,85,-99.99,,,-99.99,meteohub,2013-03-25 02:32:00,
2013-03-24 22:37:00,37.6,33.3,29.34,North,-999,-999.0,-999.0,84,-99.99,,,-99.99,meteohub,2013-03-25 02:37:00,
2013-03-24 22:42:00,37.6,33.4,29.34,North,-999,-999.0,-999.0,85,-99.99,,,-99.99,meteohub,2013-03-25 02:42:00,
2013-03-24 22:47:00,37.6,33.4,29.34,North,-999,-999.0,-999.0,85,-99.99,,,-99.99,meteohub,2013-03-25 02:47:00,
2013-03-24 22:52:00,37.6,33.4,29.31,North,-999,-999.0,-999.0,85,-99.99,,,-99.99,meteohub,2013-03-25 02:52:00,
2013-03-24 22:57:00,37.6,33.4,29.31,North,-999,-999.0,-999.0,85,-99.99,,,-99.99,meteohub,2013-03-25 02:57:00,
2013-03-24 23:02:00,37.6,33.4,29.31,North,-999,-999.0,-999.0,85,-99.99,,,-99.99,meteohub,2013-03-25 03:02:00,
2013-03-24 23:07:00,37.6,33.3,29.31,North,-999,-999.0,-999.0,84,-99.99,,,-99.99,meteohub,2013-03-25 03:07:00,
2013-03-24 23:12:00,37.6,33.3,29.31,North,-999,-999.0,-999.0,84,-99.99,,,-99.99,meteohub,2013-03-25 03:12:00,
2013-03-24 23:18:00,37.6,33.3,29.31,North,-999,-999.0,-999.0,84,-99.99,,,-99.99,meteohub,2013-03-25 03:18:00,
2013-03-24 23:23:00,37.6,33.3,29.28,North,-999,-999.0,-999.0,84,-99.99,,,-99.99,meteohub,2013-03-25 03:23:00,
2013-03-24 23:28:00,37.6,33.3,29.28,North,-999,-999.0,-999.0,84,-99.99,,,-99.99,meteohub,2013-03-25 03:28:00,
2013-03-24 23:34:00,37.4,33.1,29.28,North,-999,-999.0,-999.0,84,-99.99,,,-99.99,meteohub,2013-03-25 03:34:00,
2013-03-24 23:39:00,37.4,33.1,29.28,North,-999,-999.0,-999.0,84,-99.99,,,-99.99,meteohub,2013-03-25 03:39:00,
2013-03-24 23:44:00,37.4,33.1,29.28,North,-999,-999.0,-999.0,84,-99.99,,,-99.99,meteohub,2013-03-25 03:44:00,
2013-03-24 23:49:00,37.2,32.9,29.28,North,-999,-999.0,-999.0,84,-99.99,,,-99.99,meteohub,2013-03-25 03:49:00,
2013-03-24 23:54:00,37.2,32.9,29.28,North,-999,-999.0,-999.0,84,-99.99,,,-99.99,meteohub,2013-03-25 03:54:00,
2013-03-24 23:59:00,37.2,32.9,29.28,North,-999,-999.0,-999.0,84,-99.99,,,-99.99,meteohub,2013-03-25 03:59:00,